Terug naar catalogus

STARLINK-2479

ActiefCommunicatieVLEO
NORAD 48136·PAYLOAD·🇺🇸 United States

Gelanceerd Apr 7, 2021 vanaf Cape Canaveral Space Force Station

Loading…

Volgende Passages (komende 24 uur)

TLE

VersSource: CelesTrak SupGP

Epoch: Sep 15, 2026, 02:18 UTC

1 48136C 21027AW  26258.09631944  .00031527  00000+0  10137-2 0  2582
2 48136  53.1617   4.0888 0000904  76.1778 287.5407 15.31692503    13

Volg STARLINK-2479 in realtime met AllMySat

Download on the App Store